Location: Potawatomi Wildlife Park
(41.2308°N, 86.1050°W)
Time: 05:45:13
(UTC-04:00)

Hubble Space Telescope - Visible Passes

Search period start: 31 July 2016 00:00
Search period end: 10 August 2016 00:00
Orbit: 539 x 543 km, 28.5° (Epoch: 30 July)

Date Brightness Start Highest point End Pass type
(mag) Time Alt. Az. Time Alt. Az. Time Alt. Az.
03 Aug 3.1 05:46:53 10° S 05:47:49 11° SSE 05:48:46 10° SSE visible
04 Aug 3.0 05:36:24 10° SSW 05:37:57 12° S 05:39:30 10° SSE visible
05 Aug 2.9 05:27:09 12° S 05:28:05 13° S 05:29:57 10° SE visible
06 Aug 2.8 05:17:58 13° S 05:18:13 13° S 05:20:16 10° SE visible
07 Aug 2.8 05:08:51 14° S 05:08:51 14° S 05:10:30 10° SSE visible
08 Aug 3.0 04:59:47 12° SSE 04:59:47 12° SSE 05:00:39 10° SSE visible
